Location: Unspecified
(0.0000°N, 0.0000°E)
Time: 06:15:32
(UTC+00:00)

deb West Ford - Pass Details

Date: 22 May 2026
Orbit: 2163 x 4941 km, 86.7° (Epoch: 8 June)

Event Time Altitude Azimuth Distance (km) Brightness Sun altitude
Exits shadow 00:18:34 16° 45° (NE) 4,292 ? -69.0°
Drops below altitude 10° 00:20:34 10° 37° (NE) 4,707 ? -68.8°
Sets 00:24:24 0° 26° (NNE) 5,676 ? -68.5°
